GW4733 Weather Reports


time (UTC)temp
C
wind
direction
speed
KPH
gust
KPH
rain 1hr
cm
rain 24hr
cm
rain mn
cm
humidity
%
barometer
mb
20260507162724 17 289 3.2 6.4 0.00 0.00 0.00 41 1012.0
20260507162220 16 297 3.2 12.9 0.00 0.00 0.00 39 1012.0
20260507161717 16 317 6.4 9.7 0.00 0.00 0.00 38 1012.1
20260507161214 16 330 8.0 11.3 0.00 0.00 0.00 39 1012.1
20260507160709 15 323 3.2 14.5 0.00 0.00 0.00 44 1012.5
20260507160206 15 317 4.8 9.7 0.00 0.00 0.00 40 1012.4
20260507155702 15 150 3.2 6.4 0.00 0.00 0.00 45 1012.5
20260507155158 15 311 6.4 11.3 0.00 0.00 0.00 41 1012.6
20260507154655 15 314 6.4 6.4 0.00 0.00 0.00 46 1012.1
20260507154153 16 327 9.7 11.3 0.00 0.00 0.00 42 1012.5
20260507153649 15 296 12.9 20.9 0.00 0.00 0.00 48 1012.6
20260507153145 14 331 9.7 22.5 0.00 0.00 0.00 44 1012.4
20260507152642 15 317 8.0 9.7 0.00 0.00 0.00 46 1012.5
20260507152138 15 302 6.4 6.4 0.00 0.00 0.00 45 1012.6
20260507151634 15 324 4.8 9.7 0.00 0.00 0.00 44 1012.6
20260507151131 15 315 4.8 6.4 0.00 0.00 0.00 48 1012.7
20260507150628 14 294 8.0 9.7 0.00 0.00 0.00 46 1013.0
20260507150125 14 325 8.0 14.5 0.00 0.00 0.00 47 1013.1
20260507145625 13 295 3.2 6.4 0.00 0.00 0.00 48 1013.2
20260507145124 13 325 3.2 6.4 0.00 0.00 0.00 47 1013.2
20260507144619 14 315 6.4 11.3 0.00 0.00 0.00 47 1013.3
20260507144118 13 311 4.8 4.8 0.00 0.00 0.00 49 1013.3
20260507143614 13 314 4.8 4.8 0.00 0.00 0.00 50 1013.5
20260507143112 14 304 4.8 6.4 0.00 0.00 0.00 48 1013.3
20260507142607 13 314 8.0 11.3 0.00 0.00 0.00 55 1013.4
20260507142104 13 317 3.2 12.9 0.00 0.00 0.00 49 1013.6
20260507141600 12 293 6.4 9.7 0.00 0.00 0.00 51 1013.5
20260507141057 12 336 8.0 12.9 0.00 0.00 0.00 51 1013.9
20260507140553 12 322 8.0 9.7 0.00 0.00 0.00 49 1013.6
20260507140051 12 325 8.0 11.3 0.00 0.00 0.00 48 1013.9
20260507135548 13 332 4.8 11.3 0.00 0.00 0.00 51 1013.7
20260507135045 13 321 9.7 11.3 0.00 0.00 0.00 50 1013.9
20260507134542 13 319 6.4 6.4 0.00 0.00 0.00 54 1014.0
20260507134037 12 322 0.0 6.4 0.00 0.00 0.00 54 1014.0
20260507133534 12 308 6.4 12.9 0.00 0.00 0.00 54 1014.1
20260507133032 12 306 6.4 9.7 0.00 0.00 0.00 54 1014.2
20260507132528 12 330 6.4 11.3 0.00 0.00 0.00 58 1014.1
20260507132024 12 330 1.6 1.6 0.00 0.00 0.00 61 1014.0
20260507131522 12 331 3.2 9.7 0.00 0.00 0.00 60 1014.2
20260507131019 11 347 4.8 4.8 0.00 0.00 0.00 61 1014.1
20260507130516 11 330 6.4 9.7 0.00 0.00 0.00 58 1014.0
20260507130014 12 309 8.0 9.7 0.00 0.00 0.00 59 1014.2
20260507125512 12 324 6.4 12.9 0.00 0.00 0.00 58 1014.0
20260507125011 11 316 4.8 11.3 0.00 0.00 0.00 63 1014.1
20260507124505 11 318 3.2 4.8 0.00 0.00 0.00 61 1014.2
20260507124003 11 317 3.2 4.8 0.00 0.00 0.00 61 1013.9
20260507123501 11 317 3.2 4.8 0.00 0.00 0.00 61 1013.9
20260507122957 11 316 4.8 4.8 0.00 0.00 0.00 61 1014.1
20260507122452 11 316 3.2 4.8 0.00 0.00 0.00 61 1013.9
20260507121949 11 316 3.2 3.2 0.00 0.00 0.00 65 1014.0
20260507121444 11 316 0.0 0.0 0.00 0.00 0.00 60 1014.1
20260507120941 11 316 1.6 3.2 0.00 0.00 0.00 60 1013.8
20260507120437 11 316 0.0 0.0 0.00 0.00 0.00 61 1013.8
20260507115934 11 316 0.0 0.0 0.00 0.00 0.00 62 1013.8
20260507115430 11 316 0.0 1.6 0.00 0.00 0.00 63 1013.6
20260507114926 11 316 1.6 6.4 0.00 0.00 0.00 60 1013.8
20260507114423 11 316 4.8 6.4 0.00 0.00 0.00 63 1013.9
20260507113920 11 316 3.2 4.8 0.00 0.00 0.00 63 1013.6
20260507113417 11 316 3.2 4.8 0.00 0.00 0.00 61 1013.7
20260507112914 11 316 1.6 3.2 0.00 0.00 0.00 62 1013.8
20260507112412 11 316 3.2 3.2 0.00 0.00 0.00 63 1013.7
20260507111909 11 316 1.6 3.2 0.00 0.00 0.00 65 1013.9
20260507111406 11 316 3.2 3.2 0.00 0.00 0.00 63 1013.9
20260507110902 11 316 3.2 4.8 0.00 0.00 0.00 61 1013.6
20260507110358 12 316 0.0 0.0 0.00 0.00 0.00 60 1013.7
20260507105855 11 316 0.0 0.0 0.00 0.00 0.00 63 1013.6
20260507105352 11 316 0.0 0.0 0.00 0.00 0.00 65 1013.6
20260507104848 11 316 0.0 0.0 0.00 0.00 0.00 63 1013.7
20260507104345 11 316 0.0 1.6 0.00 0.00 0.00 61 1013.4
20260507103841 11 316 0.0 1.6 0.00 0.00 0.00 61 1013.2
20260507103338 11 316 0.0 3.2 0.00 0.00 0.00 61 1013.2
20260507102834 11 316 0.0 0.0 0.00 0.00 0.00 61 1013.0
20260507102331 11 316 1.6 3.2 0.00 0.00 0.00 60 1013.0
20260507101827 11 316 1.6 3.2 0.00 0.00 0.00 62 1013.2
20260507101327 11 316 1.6 3.2 0.00 0.00 0.00 64 1013.1
20260507100825 11 311 0.0 3.2 0.00 0.00 0.00 61 1012.9
20260507100323 11 311 3.2 3.2 0.00 0.00 0.00 63 1013.0
20260507095821 11 311 3.2 3.2 0.00 0.00 0.00 62 1012.9
20260507095317 12 311 3.2 4.8 0.00 0.00 0.00 59 1012.7
20260507094814 11 311 3.2 3.2 0.00 0.00 0.00 61 1012.8
20260507094310 11 311 3.2 4.8 0.00 0.00 0.00 59 1012.7
20260507093808 11 311 1.6 3.2 0.00 0.00 0.00 60 1012.6
20260507093306 11 310 1.6 3.2 0.00 0.00 0.00 60 1012.6
20260507092804 11 310 3.2 4.8 0.00 0.00 0.00 59 1012.6
20260507092300 11 310 4.8 4.8 0.00 0.00 0.00 60 1012.7
20260507091756 11 325 4.8 6.4 0.00 0.00 0.00 60 1012.7
20260507091253 12 318 4.8 12.9 0.00 0.00 0.00 60 1012.8
20260507090753 12 320 3.2 4.8 0.00 0.00 0.00 63 1012.9
20260507090250 11 315 3.2 4.8 0.00 0.00 0.00 66 1012.7
20260507085747 11 323 1.6 6.4 0.00 0.00 0.00 66 1012.7
20260507085244 12 321 4.8 9.7 0.00 0.00 0.00 65 1012.8
20260507084741 12 332 4.8 9.7 0.00 0.00 0.00 68 1012.8
20260507084237 12 309 6.4 11.3 0.00 0.00 0.00 71 1012.7
20260507083735 12 323 8.0 12.9 0.00 0.00 0.00 73 1012.5
20260507083231 12 332 6.4 11.3 0.00 0.00 0.00 73 1012.6
20260507082728 12 317 4.8 9.7 0.00 0.00 0.00 74 1012.8
20260507082223 12 321 4.8 6.4 0.00 0.00 0.00 78 1012.7
20260507081721 12 321 4.8 4.8 0.00 0.00 0.00 79 1012.6
20260507081216 12 321 3.2 3.2 0.00 0.00 0.00 76 1012.5
20260507080713 12 321 1.6 3.2 0.00 0.00 0.00 76 1012.2
20260507080209 12 321 1.6 3.2 0.00 0.00 0.00 78 1012.1
20260507075705 12 321 3.2 4.8 0.00 0.00 0.00 78 1012.2
20260507075201 12 321 4.8 4.8 0.00 0.00 0.00 76 1012.2
20260507074658 12 321 3.2 4.8 0.00 0.00 0.00 76 1011.9
20260507074156 12 320 3.2 4.8 0.00 0.00 0.00 78 1011.9
20260507073652 12 320 4.8 6.4 0.00 0.00 0.00 78 1012.0
20260507073148 12 327 3.2 6.4 0.00 0.00 0.00 77 1011.8
20260507072647 12 321 3.2 3.2 0.00 0.00 0.00 79 1012.0
20260507072143 12 320 3.2 4.8 0.00 0.00 0.00 80 1011.9
20260507071641 12 320 1.6 4.8 0.00 0.00 0.00 79 1011.7
20260507071137 12 320 3.2 4.8 0.00 0.00 0.00 78 1012.0
20260507070635 12 319 4.8 6.4 0.00 0.00 0.00 79 1011.9
20260507070132 12 320 4.8 6.4 0.00 0.00 0.00 79 1012.0
20260507065628 12 322 6.4 6.4 0.00 0.00 0.00 79 1011.9
20260507065125 12 323 6.4 6.4 0.00 0.00 0.00 76 1012.2
20260507064622 12 323 3.2 3.2 0.00 0.00 0.00 77 1012.3
20260507064121 12 323 3.2 4.8 0.00 0.00 0.00 78 1012.5
20260507063618 12 309 4.8 6.4 0.00 0.00 0.00 75 1012.3
20260507063115 12 326 6.4 9.7 0.00 0.00 0.00 75 1012.4
20260507062611 12 329 3.2 6.4 0.00 0.00 0.00 77 1012.4
20260507062109 12 331 3.2 9.7 0.00 0.00 0.00 76 1012.4
20260507061607 13 329 3.2 4.8 0.00 0.00 0.00 75 1012.8
20260507061105 12 318 4.8 6.4 0.00 0.00 0.00 76 1012.5
20260507060603 12 327 6.4 9.7 0.00 0.00 0.00 77 1012.5
20260507060059 13 303 8.0 9.7 0.00 0.00 0.00 75 1012.7
20260507055554 13 322 6.4 6.4 0.00 0.00 0.00 75 1012.5
20260507055050 12 316 4.8 6.4 0.00 0.00 0.00 77 1012.4
20260507054546 13 314 4.8 4.8 0.00 0.00 0.00 75 1012.5
20260507054044 13 332 6.4 6.4 0.00 0.00 0.00 77 1012.3
20260507053542 13 322 3.2 6.4 0.00 0.00 0.00 77 1012.2
20260507053040 13 323 6.4 6.4 0.00 0.00 0.00 78 1012.3
20260507052537 13 323 3.2 4.8 0.00 0.00 0.00 79 1012.1
20260507052034 13 337 3.2 3.2 0.00 0.00 0.00 83 1012.1
20260507051532 13 337 4.8 4.8 0.00 0.00 0.00 83 1012.2
20260507051028 13 337 3.2 4.8 0.00 0.00 0.00 82 1012.2
20260507050525 13 337 1.6 3.2 0.00 0.00 0.00 81 1012.1
20260507050021 13 337 1.6 4.8 0.00 0.00 0.00 83 1012.2
20260507045518 13 337 3.2 3.2 0.00 0.00 0.00 83 1012.2
20260507045015 13 337 4.8 9.7 0.00 0.00 0.00 82 1012.1
20260507044512 13 318 8.0 9.7 0.00 0.00 0.00 82 1012.2
20260507044008 13 315 3.2 6.4 0.00 0.00 0.00 83 1012.1
20260507043504 13 316 3.2 3.2 0.00 0.00 0.00 83 1011.9
20260507043001 13 316 1.6 4.8 0.00 0.00 0.00 83 1011.7
20260507042458 13 323 3.2 3.2 0.00 0.00 0.00 84 1012.0
20260507041953 13 324 3.2 6.4 0.00 0.00 0.00 84 1012.2
20260507041451 13 333 8.0 11.3 0.00 0.00 0.00 83 1012.1
20260507040948 13 308 8.0 12.9 0.00 0.00 0.00 83 1012.3
20260507040443 13 313 12.9 14.5 0.00 0.00 0.00 83 1012.2
20260507035939 13 328 9.7 11.3 0.00 0.33 0.33 84 1011.9
20260507035436 13 304 11.3 12.9 0.00 0.33 0.33 83 1012.0
20260507034933 13 338 8.0 11.3 0.00 0.33 0.33 84 1012.1
20260507034430 13 317 9.7 11.3 0.00 0.33 0.33 85 1012.0
20260507033928 13 308 14.5 14.5 0.00 0.33 0.33 84 1012.2
20260507033425 13 313 9.7 11.3 0.00 0.33 0.33 83 1012.1
20260507032922 13 321 9.7 16.1 0.00 0.33 0.33 84 1012.2
20260507032419 13 329 9.7 14.5 0.00 0.33 0.33 83 1012.2
20260507031915 13 315 14.5 14.5 0.00 0.33 0.33 82 1011.9
20260507031412 13 318 9.7 12.9 0.00 0.33 0.33 83 1012.2
20260507030909 13 318 11.3 12.9 0.00 0.33 0.33 82 1012.1
20260507030406 14 311 8.0 14.5 0.00 0.33 0.33 82 1012.1
20260507025903 14 324 11.3 16.1 0.00 0.33 0.33 80 1012.0
20260507025400 14 307 12.9 14.5 0.00 0.33 0.33 80 1011.9
20260507024858 14 307 14.5 17.7 0.00 0.33 0.33 80 1011.9
20260507024355 14 301 11.3 16.1 0.00 0.33 0.33 79 1011.8
20260507023850 14 311 14.5 20.9 0.00 0.33 0.33 81 1011.7
20260507023348 14 310 9.7 12.9 0.00 0.33 0.33 82 1011.6
20260507022845 15 300 14.5 17.7 0.00 0.33 0.33 80 1011.7
20260507022341 14 310 11.3 16.1 0.00 0.33 0.33 80 1011.5
20260507021837 15 324 9.7 12.9 0.00 0.33 0.33 80 1011.4
20260507021333 15 331 12.9 16.1 0.00 0.33 0.33 78 1011.5
20260507020831 15 332 6.4 9.7 0.00 0.33 0.33 78 1011.6
20260507020327 15 320 11.3 20.9 0.00 0.33 0.33 79 1011.4
20260507015824 15 314 8.0 12.9 0.00 0.33 0.33 78 1011.4
20260507015322 15 321 9.7 11.3 0.00 0.33 0.33 78 1011.5
20260507014819 15 320 1.6 6.4 0.00 0.33 0.33 78 1011.4
20260507014315 15 321 6.4 11.3 0.00 0.33 0.33 77 1011.5
20260507013812 15 317 6.4 9.7 0.00 0.33 0.33 79 1011.7
20260507013309 15 325 8.0 12.9 0.00 0.33 0.33 79 1011.4
20260507012807 15 316 11.3 11.3 0.00 0.33 0.33 81 1011.3
20260507012306 15 319 9.7 11.3 0.00 0.33 0.33 80 1010.9
20260507011800 16 319 4.8 11.3 0.00 0.33 0.33 79 1011.2
20260507011256 16 326 6.4 9.7 0.00 0.33 0.33 79 1011.3
20260507010756 16 326 1.6 3.2 0.00 0.33 0.33 80 1010.9
20260507010252 16 325 4.8 6.4 0.00 0.33 0.33 80 1010.9
20260507005750 16 322 6.4 12.9 0.00 0.33 0.33 79 1011.2
20260507005246 16 326 4.8 14.5 0.00 0.33 0.33 80 1011.4
20260507004742 16 316 8.0 11.3 0.00 0.33 0.33 81 1011.6
20260507004240 16 313 3.2 4.8 0.00 0.33 0.33 83 1011.3
20260507003736 16 313 4.8 4.8 0.00 0.33 0.33 83 1011.5
20260507003232 16 314 3.2 4.8 0.00 0.33 0.33 84 1011.1
20260507002728 16 313 3.2 4.8 0.00 0.33 0.33 84 1011.0
20260507002224 17 322 3.2 4.8 0.00 0.33 0.33 84 1011.0
20260507001721 16 322 1.6 3.2 0.00 0.33 0.33 85 1010.9
20260507001218 17 300 6.4 9.7 0.00 0.33 0.33 85 1010.9
20260507000714 17 312 6.4 11.3 0.00 0.33 0.33 85 1011.0
20260507000212 17 314 6.4 11.3 0.00 0.33 0.33 84 1010.6
20260506235707 17 313 8.0 11.3 0.00 0.33 0.33 84 1010.4
20260506235203 17 314 8.0 9.7 0.00 0.33 0.33 84 1010.4
20260506234700 17 316 8.0 9.7 0.00 0.33 0.33 85 1010.4
20260506234157 17 311 3.2 11.3 0.00 0.33 0.33 86 1010.4
20260506233654 17 333 6.4 11.3 0.00 0.33 0.33 86 1010.0
20260506233151 17 320 6.4 9.7 0.00 0.33 0.33 86 1009.9
20260506232647 18 334 11.3 14.5 0.00 0.33 0.33 86 1009.8
20260506232143 18 329 4.8 9.7 0.00 0.33 0.33 86 1009.6
20260506231640 18 320 6.4 9.7 0.00 0.33 0.33 87 1009.4
20260506231139 18 317 3.2 4.8 0.00 0.33 0.33 86 1009.5
20260506230635 18 317 1.6 6.4 0.00 0.33 0.33 86 1009.5
20260506230132 18 315 8.0 12.9 0.00 0.33 0.33 85 1009.7
20260506225628 19 323 11.3 12.9 0.00 0.33 0.33 85 1009.6
20260506225125 18 322 3.2 9.7 0.00 0.33 0.33 87 1009.3
20260506224621 18 323 8.0 9.7 0.00 0.33 0.33 87 1009.7
20260506224118 18 319 9.7 11.3 0.00 0.33 0.33 88 1009.6
20260506223614 18 316 6.4 9.7 0.00 0.33 0.33 88 1009.3
20260506223110 19 317 6.4 11.3 0.00 0.33 0.33 87 1009.3
20260506222608 19 317 6.4 11.3 0.00 0.33 0.33 89 1009.1
20260506222104 18 316 8.0 9.7 0.00 0.33 0.33 89 1009.0
20260506221602 18 325 4.8 6.4 0.00 0.33 0.33 89 1008.8
20260506221100 19 321 8.0 11.3 0.00 0.33 0.33 90 1009.1
20260506220555 20 314 3.2 6.4 0.00 0.33 0.33 87 1008.9
20260506220051 21 318 1.6 1.6 0.00 0.33 0.33 82 1008.7
20260506215548 20 312 3.2 3.2 0.00 0.33 0.33 83 1008.7
20260506215043 21 137 0.0 1.6 0.00 0.33 0.33 84 1008.6
20260506214541 20 137 0.0 1.6 0.00 0.33 0.33 85 1008.5
20260506214038 20 139 1.6 3.2 0.00 0.33 0.33 82 1008.6
20260506213536 20 334 0.0 0.0 0.00 0.33 0.33 84 1008.7
20260506213033 20 334 0.0 0.0 0.00 0.33 0.33 85 1008.7
20260506212529 20 334 0.0 0.0 0.00 0.33 0.33 86 1008.6
20260506212024 20 334 0.0 0.0 0.00 0.33 0.33 87 1008.5
20260506211521 20 334 0.0 0.0 0.00 0.33 0.33 86 1008.4
20260506211018 20 334 0.0 0.0 0.00 0.33 0.33 84 1008.3
20260506210514 20 327 1.6 1.6 0.00 0.33 0.33 84 1008.0
20260506210011 20 128 0.0 1.6 0.00 0.33 0.33 85 1008.1
20260506205508 20 134 0.0 1.6 0.00 0.33 0.33 87 1008.2
20260506205003 20 106 0.0 0.0 0.00 0.33 0.33 86 1008.0
20260506204502 20 132 1.6 6.4 0.00 0.33 0.33 87 1008.1
20260506203958 19 126 1.6 4.8 0.00 0.33 0.33 87 1007.9
20260506203456 18 286 1.6 1.6 0.00 0.33 0.33 90 1007.9
20260506202952 18 296 0.0 0.0 0.00 0.33 0.33 90 1007.9
20260506202450 18 296 0.0 1.6 0.00 0.33 0.33 90 1008.1
20260506201946 18 297 0.0 1.6 0.00 0.33 0.33 92 1007.9
20260506201444 18 297 0.0 0.0 0.00 0.33 0.33 92 1008.0
20260506200940 18 297 0.0 0.0 0.00 0.33 0.33 93 1008.1
20260506200436 18 297 0.0 1.6 0.00 0.33 0.33 94 1008.0
20260506195933 18 297 0.0 0.0 0.00 0.33 0.33 94 1008.0
20260506195430 18 297 0.0 0.0 0.00 0.33 0.33 94 1008.0
20260506194927 18 297 0.0 0.0 0.00 0.33 0.33 94 1008.1
20260506194424 18 297 0.0 1.6 0.00 0.33 0.33 94 1008.1
20260506193921 18 296 1.6 1.6 0.00 0.33 0.33 93 1008.0
20260506193418 18 297 1.6 1.6 0.00 0.33 0.33 93 1008.2
20260506192914 18 297 0.0 1.6 0.00 0.33 0.33 91 1008.2
20260506192411 18 296 3.2 3.2 0.00 0.33 0.33 89 1008.4
20260506191908 19 296 0.0 0.0 0.00 0.33 0.33 89 1008.2
20260506191404 19 296 0.0 0.0 0.00 0.33 0.33 89 1008.4
20260506190902 19 296 0.0 0.0 0.00 0.33 0.33 90 1008.4
20260506190358 19 296 0.0 0.0 0.00 0.33 0.33 89 1008.2
20260506185855 19 296 0.0 0.0 0.00 0.33 0.33 88 1008.4
20260506185352 19 296 0.0 0.0 0.00 0.33 0.33 88 1008.5
20260506184849 19 296 0.0 0.0 0.00 0.33 0.33 88 1008.4
20260506184346 19 296 0.0 0.0 0.00 0.33 0.33 90 1008.3
20260506183843 18 296 0.0 0.0 0.00 0.33 0.33 89 1008.1
20260506183338 18 296 0.0 0.0 0.00 0.33 0.33 90 1008.5
20260506182836 18 297 0.0 0.0 0.00 0.33 0.33 92 1008.4
20260506182333 18 297 0.0 0.0 0.00 0.33 0.33 92 1008.3
20260506181830 18 297 0.0 0.0 0.00 0.33 0.33 91 1008.4
20260506181328 18 297 0.0 0.0 0.00 0.33 0.33 92 1008.6
20260506180825 18 297 0.0 0.0 0.00 0.33 0.33 91 1008.6
20260506180321 18 297 0.0 0.0 0.00 0.33 0.33 91 1008.5
20260506175817 18 297 0.0 0.0 0.00 0.33 0.33 90 1008.6
20260506175315 18 297 1.6 3.2 0.00 0.33 0.33 88 1008.5
20260506174812 18 297 0.0 0.0 0.00 0.33 0.33 87 1008.7
20260506174309 18 297 0.0 1.6 0.00 0.33 0.33 85 1008.7
20260506173806 18 297 0.0 3.2 0.00 0.33 0.33 85 1008.6
20260506173303 18 112 0.0 3.2 0.00 0.33 0.33 86 1008.4
20260506172800 18 96 4.8 4.8 0.00 0.33 0.33 83 1008.4
20260506172256 18 142 1.6 3.2 0.00 0.33 0.33 83 1008.6
20260506171754 18 114 0.0 3.2 0.00 0.33 0.33 82 1008.5
20260506171251 19 140 1.6 3.2 0.00 0.33 0.33 83 1008.5
20260506170749 19 165 0.0 3.2 0.00 0.33 0.33 81 1008.3
20260506170245 19 69 1.6 3.2 0.00 0.33 0.33 82 1008.3
20260506165744 20 69 0.0 4.8 0.00 0.33 0.33 81 1008.4
20260506165240 20 315 6.4 9.7 0.00 0.33 0.33 81 1008.6
20260506164738 20 331 0.0 1.6 0.00 0.33 0.33 80 1008.3
20260506164234 20 312 0.0 4.8 0.00 0.33 0.33 80 1008.4
20260506163731 20 165 3.2 4.8 0.00 0.33 0.33 78 1008.5
20260506163226 20 125 0.0 4.8 0.00 0.33 0.33 80 1008.4